DLH13W EYVI-EDDK

Flight info

Callsign DLH13W
Flight time 1h 56m
Altitude 38000
Route UPASI DCT TUNGA DCT SUWGI DCT ALUKA DCT POVEL/N0404F340 Q201 PODER Z189 RUNER/N0344F240 T858 KOPAG KOPAG1F
Aircraft A20N/M-SDE2E3FGHIRWXY/LB1

Departure

Time 2026-05-04 00:19
Airport Vilnius International Airport (EYVI)

Arrival

Time 2026-05-04 02:16
Airport Cologne Bonn Airport (EDDK)
Time Latitude Longitude Altitude Speed Heading
2026-05-03 23:48 54.64240 25.28122 639 ft 0 kts
2026-05-04 00:11 54.64239 25.28122 644 ft 2 kts
2026-05-04 00:11 54.64214 25.28116 639 ft 4 kts
2026-05-04 00:11 54.64187 25.28110 638 ft 4 kts
2026-05-04 00:11 54.64160 25.28104 642 ft 4 kts
2026-05-04 00:12 54.64151 25.28102 639 ft 0 kts
2026-05-04 00:14 54.64159 25.28109 641 ft 2 kts 32°
2026-05-04 00:14 54.64164 25.28128 640 ft 3 kts 63°
2026-05-04 00:14 54.64173 25.28180 641 ft 6 kts 75°
2026-05-04 00:14 54.64179 25.28268 638 ft 9 kts 84°
2026-05-04 00:15 54.64205 25.28376 642 ft 11 kts 68°
2026-05-04 00:15 54.64212 25.28513 641 ft 13 kts 86°
2026-05-04 00:15 54.64250 25.28642 641 ft 12 kts
2026-05-04 00:15 54.64319 25.28667 643 ft 6 kts 72°
2026-05-04 00:16 54.64325 25.28763 644 ft 9 kts 86°
2026-05-04 00:16 54.64329 25.28892 644 ft 12 kts 87°
2026-05-04 00:16 54.64333 25.29054 645 ft 15 kts 88°
2026-05-04 00:16 54.64361 25.29183 646 ft 4 kts 10°
2026-05-04 00:17 54.64395 25.29174 648 ft 6 kts 352°
2026-05-04 00:17 54.64437 25.29182 649 ft 7 kts 20°
2026-05-04 00:17 54.64472 25.29239 649 ft 8 kts 73°
2026-05-04 00:17 54.64449 25.29291 648 ft 0 kts 194°
2026-05-04 00:18 54.64406 25.29262 647 ft 32 kts 202°
2026-05-04 00:18 54.63964 25.28957 634 ft 103 kts 202°
2026-05-04 00:18 54.63121 25.28386 626 ft 154 kts 200°
2026-05-04 00:19 54.62111 25.27688 1148 ft 155 kts 202°
2026-05-04 00:19 54.61114 25.26992 1821 ft 154 kts 206°
2026-05-04 00:19 54.60104 25.26334 2432 ft 160 kts 206°
2026-05-04 00:19 54.59008 25.25575 2816 ft 180 kts 206°
2026-05-04 00:20 54.57788 25.24716 3169 ft 205 kts 206°
2026-05-04 00:20 54.56392 25.23736 3702 ft 228 kts 205°
2026-05-04 00:20 54.54879 25.22684 4568 ft 238 kts 205°
2026-05-04 00:20 54.53324 25.21611 5639 ft 242 kts 205°
2026-05-04 00:21 54.51781 25.20368 6650 ft 245 kts 219°
2026-05-04 00:21 54.50682 25.18174 7646 ft 243 kts 246°
2026-05-04 00:21 54.50319 25.15349 8642 ft 245 kts 273°
2026-05-04 00:21 54.50665 25.12487 9555 ft 255 kts 285°
2026-05-04 00:22 54.51162 25.09411 10152 ft 275 kts 285°
2026-05-04 00:22 54.51694 25.06109 10673 ft 297 kts 285°
2026-05-04 00:22 54.52252 25.02581 11120 ft 318 kts 284°
2026-05-04 00:22 54.52801 24.98837 11942 ft 324 kts 279°
2026-05-04 00:23 54.52924 24.94968 12979 ft 324 kts 266°
2026-05-04 00:23 54.52507 24.91191 13946 ft 327 kts 253°
2026-05-04 00:23 54.51712 24.87483 14746 ft 332 kts 251°
2026-05-04 00:23 54.50896 24.83731 15529 ft 337 kts 251°
2026-05-04 00:24 54.50073 24.79932 16307 ft 342 kts 251°
2026-05-04 00:24 54.49232 24.76045 17089 ft 347 kts 251°
2026-05-04 00:24 54.48384 24.72123 17853 ft 352 kts 251°
2026-05-04 00:24 54.47535 24.68201 18558 ft 357 kts 251°
2026-05-04 00:25 54.46663 24.64180 19213 ft 361 kts 251°
2026-05-04 00:25 54.45778 24.60107 19876 ft 366 kts 251°
2026-05-04 00:25 54.44880 24.55976 20523 ft 370 kts 251°
2026-05-04 00:25 54.43969 24.51802 21166 ft 375 kts 250°
2026-05-04 00:26 54.43056 24.47626 21806 ft 379 kts 250°
2026-05-04 00:26 54.42120 24.43352 22428 ft 384 kts 250°
2026-05-04 00:26 54.41171 24.39028 23058 ft 389 kts 250°
2026-05-04 00:26 54.40207 24.34646 23645 ft 393 kts 250°
2026-05-04 00:27 54.39234 24.30235 24178 ft 397 kts 250°
2026-05-04 00:27 54.38318 24.25745 24702 ft 400 kts 254°
2026-05-04 00:27 54.37523 24.21190 25171 ft 405 kts 254°
2026-05-04 00:27 54.36709 24.16542 25642 ft 409 kts 254°
2026-05-04 00:28 54.35885 24.11853 26196 ft 411 kts 253°
2026-05-04 00:28 54.35051 24.07128 26661 ft 415 kts 253°
2026-05-04 00:28 54.34213 24.02401 27115 ft 418 kts 253°
2026-05-04 00:28 54.33361 23.97609 27573 ft 422 kts 253°
2026-05-04 00:29 54.32510 23.92835 28019 ft 425 kts 253°
2026-05-04 00:29 54.31638 23.87957 28442 ft 429 kts 253°
2026-05-04 00:29 54.30754 23.83033 28856 ft 432 kts 253°
2026-05-04 00:29 54.29867 23.78098 29253 ft 435 kts 253°
2026-05-04 00:30 54.28968 23.73110 29644 ft 438 kts 253°
2026-05-04 00:30 54.28076 23.68179 30034 ft 441 kts 253°
2026-05-04 00:30 54.27165 23.63151 30393 ft 444 kts 253°
2026-05-04 00:30 54.26274 23.58077 30756 ft 446 kts 257°
2026-05-04 00:31 54.25686 23.52841 31120 ft 447 kts 260°
2026-05-04 00:31 54.25125 23.47604 31507 ft 448 kts 260°
2026-05-04 00:31 54.24566 23.42367 32051 ft 445 kts 260°
2026-05-04 00:31 54.24021 23.37238 32575 ft 443 kts 260°
2026-05-04 00:32 54.23471 23.32052 33036 ft 442 kts 260°
2026-05-04 00:32 54.22921 23.26875 33487 ft 441 kts 260°
2026-05-04 00:32 54.22371 23.21707 33938 ft 440 kts 260°
2026-05-04 00:32 54.21820 23.16563 34324 ft 439 kts 260°
2026-05-04 00:33 54.21277 23.11514 34720 ft 437 kts 260°
2026-05-04 00:33 54.20171 23.01297 35490 ft 434 kts 260°
2026-05-04 00:33 54.19615 22.96217 35859 ft 432 kts 260°
2026-05-04 00:34 54.19067 22.91234 36212 ft 431 kts 260°
2026-05-04 00:34 54.18511 22.86204 36552 ft 430 kts 260°
2026-05-04 00:34 54.17953 22.81189 36903 ft 428 kts 259°
2026-05-04 00:34 54.17399 22.76217 37343 ft 424 kts 259°
2026-05-04 00:35 54.16846 22.71278 37666 ft 423 kts 259°
2026-05-04 00:35 54.16293 22.66354 37931 ft 422 kts 259°
2026-05-04 00:35 54.15744 22.61489 37952 ft 421 kts 259°
2026-05-04 00:36 54.14623 22.51613 37952 ft 424 kts 259°
2026-05-04 00:36 54.13495 22.41749 37953 ft 423 kts 259°
2026-05-04 00:37 54.12366 22.31952 37952 ft 423 kts 259°
2026-05-04 00:37 54.11221 22.22093 37947 ft 423 kts 259°
2026-05-04 00:38 54.10073 22.12279 37947 ft 419 kts 259°
2026-05-04 00:38 54.08926 22.02546 37940 ft 420 kts 259°
2026-05-04 00:39 54.07773 21.92837 37945 ft 419 kts 259°
2026-05-04 00:39 54.06605 21.83079 37945 ft 419 kts 259°
2026-05-04 00:40 54.05431 21.73335 37939 ft 419 kts 259°
2026-05-04 00:40 54.04258 21.63671 37938 ft 419 kts 258°
2026-05-04 00:41 54.03069 21.53942 37941 ft 419 kts 258°
2026-05-04 00:41 54.01880 21.44280 37935 ft 416 kts 258°
2026-05-04 00:42 54.00690 21.34687 37935 ft 417 kts 258°
2026-05-04 00:42 53.99485 21.25033 37934 ft 416 kts 258°
2026-05-04 00:43 53.98477 21.17011 37940 ft 417 kts 258°
2026-05-04 00:43 53.97061 21.05820 37943 ft 416 kts 258°
2026-05-04 00:44 53.96039 20.97801 37932 ft 416 kts 258°
2026-05-04 00:44 53.94803 20.88163 37919 ft 417 kts 258°
2026-05-04 00:45 53.93562 20.78548 37926 ft 417 kts 258°
2026-05-04 00:45 53.92319 20.68983 37924 ft 418 kts 257°
2026-05-04 00:46 53.91057 20.59332 37933 ft 418 kts 257°
2026-05-04 00:46 53.89794 20.49747 37930 ft 419 kts 257°
2026-05-04 00:47 53.88515 20.40097 37935 ft 420 kts 257°
2026-05-04 00:47 53.87224 20.30424 37943 ft 420 kts 257°
2026-05-04 00:48 53.85937 20.20846 37929 ft 417 kts 257°
2026-05-04 00:48 53.84638 20.11242 37931 ft 418 kts 257°
2026-05-04 00:49 53.83330 20.01631 37925 ft 419 kts 257°
2026-05-04 00:49 53.82016 19.92038 37927 ft 420 kts 257°
2026-05-04 00:50 53.80691 19.82428 37929 ft 419 kts 257°
2026-05-04 00:50 53.79355 19.72802 37916 ft 419 kts 257°
2026-05-04 00:51 53.78025 19.63279 37930 ft 418 kts 257°
2026-05-04 00:51 53.76679 19.53703 37920 ft 418 kts 256°
2026-05-04 00:52 53.75329 19.44152 37919 ft 417 kts 256°
2026-05-04 00:52 53.73979 19.34670 37919 ft 417 kts 256°
2026-05-04 00:53 53.72615 19.25144 37908 ft 416 kts 256°
2026-05-04 00:53 53.71244 19.15628 37904 ft 416 kts 256°
2026-05-04 00:54 53.69875 19.06183 37906 ft 416 kts 256°
2026-05-04 00:54 53.68491 18.96693 37913 ft 416 kts 256°
2026-05-04 00:55 53.67103 18.87233 37914 ft 416 kts 256°
2026-05-04 00:55 53.65702 18.77744 37914 ft 416 kts 256°
2026-05-04 00:56 53.64295 18.68269 37913 ft 416 kts 256°
2026-05-04 00:56 53.62889 18.58861 37912 ft 416 kts 256°
2026-05-04 00:57 53.61465 18.49382 37910 ft 416 kts 256°
2026-05-04 00:57 53.60035 18.39920 37924 ft 416 kts 255°
2026-05-04 00:58 53.58607 18.30536 37907 ft 416 kts 255°
2026-05-04 00:58 53.57164 18.21098 37906 ft 416 kts 255°
2026-05-04 00:59 53.55712 18.11658 37907 ft 416 kts 255°
2026-05-04 00:59 53.54261 18.02283 37907 ft 416 kts 255°
2026-05-04 01:00 53.52796 17.92866 37909 ft 416 kts 255°
2026-05-04 01:00 53.51332 17.83511 37923 ft 416 kts 255°
2026-05-04 01:01 53.49852 17.74109 37913 ft 416 kts 255°
2026-05-04 01:01 53.48362 17.64696 37911 ft 416 kts 254°
2026-05-04 01:02 53.46874 17.55354 37905 ft 415 kts 254°
2026-05-04 01:02 53.45374 17.45986 37904 ft 415 kts 254°
2026-05-04 01:03 53.43877 17.36681 37909 ft 415 kts 254°
2026-05-04 01:03 53.42362 17.27324 37902 ft 415 kts 254°
2026-05-04 01:04 53.40840 17.17964 37915 ft 415 kts 254°
2026-05-04 01:04 53.39321 17.08683 37915 ft 414 kts 253°
2026-05-04 01:05 53.37786 16.99361 37914 ft 414 kts 253°
2026-05-04 01:05 53.36257 16.90119 37913 ft 414 kts 253°
2026-05-04 01:06 53.34712 16.80832 37913 ft 413 kts 253°
2026-05-04 01:06 53.33172 16.71622 37909 ft 413 kts 253°
2026-05-04 01:07 53.31613 16.62351 37903 ft 412 kts 253°
2026-05-04 01:07 53.30050 16.53099 37906 ft 412 kts 253°
2026-05-04 01:08 53.28494 16.43945 37904 ft 412 kts 253°
2026-05-04 01:08 53.26917 16.34716 37900 ft 412 kts 253°
2026-05-04 01:09 53.25346 16.25563 37906 ft 412 kts 253°
2026-05-04 01:09 53.23755 16.16347 37905 ft 412 kts 253°
2026-05-04 01:10 53.22156 16.07136 37907 ft 412 kts 253°
2026-05-04 01:10 53.20561 15.97986 37915 ft 412 kts 252°
2026-05-04 01:11 53.18949 15.88791 37917 ft 412 kts 252°
2026-05-04 01:11 53.17345 15.79692 37912 ft 411 kts 252°
2026-05-04 01:12 53.15723 15.70528 37909 ft 411 kts 252°
2026-05-04 01:12 53.14092 15.61365 37905 ft 411 kts 252°
2026-05-04 01:13 53.12465 15.52274 37907 ft 411 kts 252°
2026-05-04 01:13 53.10822 15.43138 37925 ft 411 kts 252°
2026-05-04 01:14 53.09182 15.34057 37923 ft 411 kts 252°
2026-05-04 01:14 53.07524 15.24932 37919 ft 411 kts 251°
2026-05-04 01:15 53.05865 15.15843 37919 ft 410 kts 251°
2026-05-04 01:15 53.04210 15.06817 37917 ft 410 kts 251°
2026-05-04 01:16 53.02539 14.97749 37902 ft 409 kts 251°
2026-05-04 01:16 53.00872 14.88752 37898 ft 409 kts 251°
2026-05-04 01:17 52.99191 14.79722 37898 ft 409 kts 251°
2026-05-04 01:17 52.97505 14.70705 37898 ft 409 kts 251°
2026-05-04 01:18 52.95811 14.61671 37907 ft 409 kts 251°
2026-05-04 01:18 52.94125 14.52704 37910 ft 409 kts 251°
2026-05-04 01:19 52.92422 14.43683 37906 ft 410 kts 251°
2026-05-04 01:19 52.90720 14.34720 37912 ft 410 kts 251°
2026-05-04 01:20 52.88879 14.25754 37910 ft 410 kts 249°
2026-05-04 01:20 52.87043 14.16787 37906 ft 410 kts 250°
2026-05-04 01:21 52.85249 14.07877 37910 ft 411 kts 250°
2026-05-04 01:21 52.83413 13.98914 37905 ft 411 kts 250°
2026-05-04 01:22 52.81584 13.90074 37910 ft 411 kts 250°
2026-05-04 01:22 52.79733 13.81175 37917 ft 411 kts 250°
2026-05-04 01:23 52.77863 13.72221 37913 ft 412 kts 250°
2026-05-04 01:23 52.75993 13.63304 37908 ft 408 kts 250°
2026-05-04 01:24 52.74141 13.54512 37916 ft 409 kts 249°
2026-05-04 01:24 52.72263 13.45640 37919 ft 409 kts 249°
2026-05-04 01:25 52.70378 13.36768 37917 ft 409 kts 249°
2026-05-04 01:25 52.68501 13.27977 37913 ft 409 kts 249°
2026-05-04 01:26 52.66603 13.19125 37919 ft 409 kts 249°
2026-05-04 01:26 52.64701 13.10290 37929 ft 409 kts 249°
2026-05-04 01:27 52.62788 13.01442 37924 ft 409 kts 249°
2026-05-04 01:27 52.60884 12.92675 37918 ft 409 kts 249°
2026-05-04 01:28 52.58958 12.83847 37918 ft 409 kts 249°
2026-05-04 01:28 52.57044 12.75108 37915 ft 408 kts 249°
2026-05-04 01:29 52.55112 12.66326 37926 ft 408 kts 249°
2026-05-04 01:29 52.53175 12.57556 37919 ft 408 kts 249°
2026-05-04 01:30 52.51242 12.48838 37924 ft 408 kts 248°
2026-05-04 01:30 52.49291 12.40083 37933 ft 407 kts 248°
2026-05-04 01:31 52.47350 12.31408 37931 ft 407 kts 248°
2026-05-04 01:31 52.45392 12.22688 37930 ft 407 kts 248°
2026-05-04 01:32 52.43761 12.15458 37925 ft 406 kts 248°
2026-05-04 01:32 52.41786 12.06731 37931 ft 406 kts 248°
2026-05-04 01:33 52.39824 11.98097 37925 ft 406 kts 248°
2026-05-04 01:33 52.37839 11.89402 37914 ft 407 kts 248°
2026-05-04 01:34 52.35853 11.80734 37920 ft 407 kts 248°
2026-05-04 01:34 52.33865 11.72097 37922 ft 408 kts 248°
2026-05-04 01:35 52.31855 11.63395 37926 ft 408 kts 248°
2026-05-04 01:35 52.29850 11.54751 37930 ft 409 kts 248°
2026-05-04 01:36 52.27818 11.46025 37937 ft 410 kts 247°
2026-05-04 01:36 52.25791 11.37360 37939 ft 410 kts 247°
2026-05-04 01:37 52.23747 11.28656 37941 ft 410 kts 247°
2026-05-04 01:37 52.21707 11.20004 37940 ft 410 kts 247°
2026-05-04 01:38 52.19647 11.11300 37944 ft 410 kts 247°
2026-05-04 01:38 52.17594 11.02659 37970 ft 410 kts 247°
2026-05-04 01:39 52.15523 10.93980 37953 ft 410 kts 247°
2026-05-04 01:39 52.13451 10.85311 37961 ft 410 kts 247°
2026-05-04 01:40 52.11412 10.76676 37732 ft 408 kts 248°
2026-05-04 01:40 52.10425 10.72369 37437 ft 404 kts 248°
2026-05-04 01:40 52.09458 10.68140 36933 ft 402 kts 248°
2026-05-04 01:40 52.08480 10.63881 36310 ft 400 kts 248°
2026-05-04 01:41 52.07505 10.59658 35640 ft 399 kts 248°
2026-05-04 01:41 52.06537 10.55478 34995 ft 398 kts 247°
2026-05-04 01:41 52.05559 10.51274 34365 ft 396 kts 247°
2026-05-04 01:41 52.04592 10.47120 34062 ft 391 kts 247°
2026-05-04 01:42 52.03616 10.42948 33963 ft 399 kts 247°
2026-05-04 01:42 52.01630 10.34470 33956 ft 400 kts 247°
2026-05-04 01:43 51.99647 10.26030 33962 ft 404 kts 247°
2026-05-04 01:43 51.97637 10.17514 33961 ft 403 kts 247°
2026-05-04 01:44 51.95633 10.09052 33953 ft 403 kts 247°
2026-05-04 01:44 51.93614 10.00563 33960 ft 403 kts 247°
2026-05-04 01:45 51.91595 9.92111 33962 ft 403 kts 246°
2026-05-04 01:45 51.88552 9.79426 33959 ft 403 kts 246°
2026-05-04 01:46 51.86505 9.70944 33948 ft 404 kts 247°
2026-05-04 01:46 51.84465 9.62512 33951 ft 405 kts 247°
2026-05-04 01:47 51.82405 9.54032 33958 ft 405 kts 247°
2026-05-04 01:47 51.80332 9.45533 33965 ft 406 kts 246°
2026-05-04 01:48 51.78268 9.37108 33965 ft 406 kts 246°
2026-05-04 01:48 51.76178 9.28604 33968 ft 407 kts 246°
2026-05-04 01:49 51.74094 9.20159 33970 ft 407 kts 246°
2026-05-04 01:49 51.71990 9.11665 33968 ft 407 kts 246°
2026-05-04 01:50 51.69880 9.03178 33973 ft 407 kts 246°
2026-05-04 01:50 51.67766 8.94709 33962 ft 407 kts 246°
2026-05-04 01:51 51.65657 8.86296 33951 ft 406 kts 246°
2026-05-04 01:51 51.64609 8.82123 33687 ft 403 kts 246°
2026-05-04 01:51 51.63585 8.78057 33073 ft 402 kts 246°
2026-05-04 01:52 51.62457 8.73945 32313 ft 401 kts 240°
2026-05-04 01:52 51.60909 8.70241 31520 ft 401 kts 231°
2026-05-04 01:52 51.58923 8.67082 30805 ft 403 kts 221°
2026-05-04 01:52 51.56569 8.64586 30112 ft 408 kts 213°
2026-05-04 01:53 51.54084 8.62380 29330 ft 406 kts 213°
2026-05-04 01:53 51.51662 8.60214 28599 ft 402 kts 213°
2026-05-04 01:53 51.49222 8.58026 27875 ft 398 kts 213°
2026-05-04 01:53 51.46819 8.55871 27186 ft 394 kts 213°
2026-05-04 01:54 51.44435 8.53734 26522 ft 389 kts 213°
2026-05-04 01:54 51.42083 8.51625 25896 ft 385 kts 212°
2026-05-04 01:54 51.39753 8.49541 25275 ft 381 kts 212°
2026-05-04 01:54 51.37478 8.47508 24663 ft 378 kts 212°
2026-05-04 01:55 51.35182 8.45461 24037 ft 375 kts 211°
2026-05-04 01:55 51.32908 8.43435 23418 ft 372 kts 211°
2026-05-04 01:55 51.30657 8.41421 22706 ft 369 kts 213°
2026-05-04 01:55 51.28591 8.39040 22018 ft 364 kts 223°
2026-05-04 01:56 51.26854 8.36152 21300 ft 361 kts 232°
2026-05-04 01:56 51.25457 8.32819 20586 ft 359 kts 240°
2026-05-04 01:56 51.24234 8.29398 19906 ft 358 kts 240°
2026-05-04 01:56 51.22992 8.25956 19231 ft 357 kts 239°
2026-05-04 01:57 51.21746 8.22524 18565 ft 356 kts 240°
2026-05-04 01:57 51.20502 8.19110 17859 ft 355 kts 239°
2026-05-04 01:57 51.19277 8.15754 17124 ft 353 kts 239°
2026-05-04 01:57 51.18054 8.12409 16389 ft 344 kts 239°
2026-05-04 01:58 51.16859 8.09148 15716 ft 339 kts 239°
2026-05-04 01:58 51.15663 8.05885 15021 ft 341 kts 239°
2026-05-04 01:58 51.14459 8.02607 14346 ft 342 kts 239°
2026-05-04 01:58 51.13258 7.99338 13670 ft 342 kts 239°
2026-05-04 01:59 51.12061 7.96087 12953 ft 340 kts 239°
2026-05-04 01:59 51.10877 7.92872 12297 ft 338 kts 239°
2026-05-04 01:59 51.09692 7.89662 11662 ft 335 kts 239°
2026-05-04 01:59 51.08507 7.86457 11035 ft 332 kts 239°
2026-05-04 02:00 51.07362 7.83343 10469 ft 320 kts 241°
2026-05-04 02:00 51.06464 7.80240 10224 ft 298 kts 249°
2026-05-04 02:00 51.05881 7.77245 10022 ft 278 kts 254°
2026-05-04 02:00 51.05421 7.74311 9507 ft 269 kts 254°
2026-05-04 02:01 51.04963 7.71463 9211 ft 263 kts 254°
2026-05-04 02:01 51.04503 7.68629 9077 ft 265 kts 254°
2026-05-04 02:01 51.04042 7.65789 8869 ft 264 kts 254°
2026-05-04 02:01 51.03586 7.62974 8611 ft 262 kts 254°
2026-05-04 02:02 51.03136 7.60202 8357 ft 262 kts 254°
2026-05-04 02:02 51.02679 7.57399 8102 ft 261 kts 254°
2026-05-04 02:02 51.02223 7.54600 7865 ft 262 kts 253°
2026-05-04 02:02 51.01767 7.51805 7668 ft 261 kts 254°
2026-05-04 02:03 51.01309 7.49007 7469 ft 261 kts 254°
2026-05-04 02:03 51.00853 7.46225 7346 ft 260 kts 254°
2026-05-04 02:03 51.00404 7.43483 7222 ft 260 kts 254°
2026-05-04 02:03 50.99948 7.40700 7099 ft 260 kts 254°
2026-05-04 02:04 50.99493 7.37925 7012 ft 259 kts 254°
2026-05-04 02:04 50.99038 7.35156 6986 ft 259 kts 253°
2026-05-04 02:04 50.98580 7.32381 6971 ft 258 kts 253°
2026-05-04 02:04 50.98131 7.29665 6745 ft 257 kts 253°
2026-05-04 02:05 50.97676 7.26920 6372 ft 257 kts 253°
2026-05-04 02:05 50.97223 7.24193 6066 ft 253 kts 254°
2026-05-04 02:05 50.96770 7.21469 5996 ft 258 kts 254°
2026-05-04 02:05 50.96320 7.18763 5994 ft 257 kts 254°
2026-05-04 02:06 50.95861 7.16010 5994 ft 257 kts 254°
2026-05-04 02:06 50.95396 7.13269 5949 ft 257 kts 251°
2026-05-04 02:06 50.94725 7.10645 5814 ft 256 kts 243°
2026-05-04 02:06 50.93944 7.08121 5692 ft 255 kts 243°
2026-05-04 02:07 50.93164 7.05565 5568 ft 257 kts 244°
2026-05-04 02:07 50.92389 7.03014 5440 ft 256 kts 244°
2026-05-04 02:07 50.91628 7.00507 5316 ft 256 kts 244°
2026-05-04 02:07 50.90857 6.97972 5193 ft 256 kts 244°
2026-05-04 02:08 50.90084 6.95435 5067 ft 255 kts 244°
2026-05-04 02:08 50.89312 6.92904 4941 ft 255 kts 244°
2026-05-04 02:08 50.88539 6.90372 4815 ft 255 kts 244°
2026-05-04 02:08 50.87776 6.87875 4659 ft 254 kts 244°
2026-05-04 02:09 50.87005 6.85357 4539 ft 254 kts 244°
2026-05-04 02:09 50.86241 6.82865 4334 ft 249 kts 244°
2026-05-04 02:09 50.85409 6.80479 4035 ft 250 kts 231°
2026-05-04 02:09 50.84001 6.78830 3786 ft 257 kts 203°
2026-05-04 02:10 50.82231 6.78463 3534 ft 259 kts 175°
2026-05-04 02:10 50.80554 6.79348 3284 ft 250 kts 157°
2026-05-04 02:10 50.79065 6.80651 3038 ft 240 kts 147°
2026-05-04 02:10 50.78051 6.82557 2980 ft 232 kts 114°
2026-05-04 02:11 50.77797 6.85108 2967 ft 236 kts 81°
2026-05-04 02:11 50.78331 6.87519 2971 ft 232 kts 63°
2026-05-04 02:11 50.79024 6.89714 2963 ft 209 kts 60°
2026-05-04 02:11 50.79655 6.91652 3022 ft 185 kts 60°
2026-05-04 02:12 50.80194 6.93334 2952 ft 164 kts 61°
2026-05-04 02:12 50.80704 6.94967 2552 ft 167 kts 62°
2026-05-04 02:12 50.81192 6.96583 2313 ft 155 kts 63°
2026-05-04 02:12 50.81621 6.98057 2127 ft 144 kts 64°
2026-05-04 02:13 50.82040 6.99509 2009 ft 144 kts 63°
2026-05-04 02:13 50.82475 7.00939 1855 ft 144 kts 62°
2026-05-04 02:13 50.82924 7.02321 1624 ft 141 kts 62°
2026-05-04 02:13 50.83363 7.03660 1402 ft 139 kts 62°
2026-05-04 02:14 50.83790 7.05021 1231 ft 135 kts 63°
2026-05-04 02:14 50.84195 7.06313 1045 ft 128 kts 65°
2026-05-04 02:14 50.84552 7.07586 897 ft 125 kts 67°
2026-05-04 02:14 50.84934 7.08828 750 ft 125 kts 65°
2026-05-04 02:15 50.85308 7.10067 579 ft 124 kts 66°
2026-05-04 02:15 50.85691 7.11299 432 ft 125 kts 64°
2026-05-04 02:15 50.86062 7.12523 280 ft 124 kts 66°
2026-05-04 02:15 50.86408 7.13679 251 ft 84 kts 63°
2026-05-04 02:16 50.86576 7.14234 257 ft 42 kts 66°
2026-05-04 02:16 50.86629 7.14294 257 ft 6 kts 323°
2026-05-04 02:16 50.86690 7.14200 255 ft 5 kts 317°
2026-05-04 02:16 50.86691 7.14199 255 ft 0 kts 318°
2026-05-04 02:19 50.86696 7.14192 255 ft 4 kts 318°
2026-05-04 02:19 50.86740 7.14142 252 ft 11 kts 342°
2026-05-04 02:19 50.86829 7.14069 247 ft 18 kts 323°
2026-05-04 02:20 50.86935 7.13906 243 ft 23 kts 317°
2026-05-04 02:20 50.87028 7.13770 242 ft 18 kts 317°
2026-05-04 02:20 50.87129 7.13627 239 ft 19 kts 317°
2026-05-04 02:20 50.87221 7.13493 237 ft 16 kts 317°
2026-05-04 02:21 50.87309 7.13365 234 ft 20 kts 317°
2026-05-04 02:21 50.87401 7.13231 232 ft 19 kts 317°
2026-05-04 02:21 50.87490 7.13102 234 ft 14 kts 317°
2026-05-04 02:21 50.87579 7.12973 230 ft 20 kts 317°
2026-05-04 02:22 50.87675 7.12833 230 ft 17 kts 317°
2026-05-04 02:22 50.87766 7.12700 230 ft 17 kts 317°
2026-05-04 02:22 50.87812 7.12638 230 ft 1 kts 322°
2026-05-04 02:22 50.87835 7.12617 230 ft 6 kts 336°
2026-05-04 02:23 50.87892 7.12612 230 ft 10 kts
2026-05-04 02:23 50.87961 7.12559 230 ft 8 kts 321°
2026-05-04 02:23 50.88015 7.12481 230 ft 13 kts 313°
2026-05-04 02:23 50.88059 7.12403 230 ft 16 kts 311°
2026-05-04 02:24 50.88124 7.12218 230 ft 15 kts 311°
2026-05-04 02:24 50.88161 7.12135 231 ft 8 kts 306°
2026-05-04 02:24 50.88201 7.12047 230 ft 12 kts 306°
2026-05-04 02:24 50.88237 7.11953 230 ft 3 kts 256°
2026-05-04 02:25 50.88212 7.11919 230 ft 6 kts 216°
2026-05-04 02:25 50.88202 7.11909 230 ft 2 kts 216°
2026-05-04 02:25 50.88196 7.11902 230 ft 1 kts 215°
2026-05-04 02:25 50.88196 7.11901 230 ft 0 kts 215°